Theta_e
344 345 344 345 359 359 359 356 350 351 350 346 344 348 347 347 348 345 344 344 337 340 339 340 346 350 350 350 349 350 350 346 342 346 346 345 346 348 342 351 352 352 352 350 352 351 353 352 350
345 348 346 347 356 357 360 352 351 347 348 345 346 347 348 350 346 345 344 341 338 339 343 338 343 347 344 347 349 350 351 350 347 344 347 352 352 352 352 351 351 352 352 346 351 353 351 346 346
349 350 350 348 353 360 359 353 350 347 345 345 347 345 348 349 345 345 342 343 337 336 337 337 338 340 341 345 350 351 350 351 351 350 352 352 351 352 351 352 351 350 351 351 349 345 350 346 345
348 347 343 350 355 353 355 351 348 349 346 346 348 351 347 346 346 346 345 344 344 344 338 338 343 349 349 351 351 351 351 351 351 351 350 350 350 351 352 351 352 351 351 348 342 344 342 343 345
346 350 353 354 353 355 353 354 351 350 350 350 349 352 351 345 346 346 346 347 343 346 349 348 348 350 351 349 351 350 352 350 351 349 351 351 350 352 352 351 351 351 342 342 341 343 341 343 346
348 350 358 357 355 354 351 353 350 349 350 351 352 352 351 343 345 346 348 346 342 345 349 350 349 351 351 352 350 349 352 350 348 350 350 350 351 354 353 352 351 351 351 345 346 345 341 345 345
348 353 359 357 356 357 356 351 350 348 351 351 348 353 348 342 341 346 347 343 343 345 347 348 350 351 351 351 348 348 348 350 348 349 346 345 349 352 351 353 351 349 350 350 346 343 343 345 346
347 353 359 358 358 357 354 352 352 350 349 346 347 353 351 344 344 347 348 347 346 346 346 348 348 349 348 351 351 350 351 350 351 351 340 337 342 352 352 349 352 352 352 343 333 336 340 343 344
345 356 359 358 357 349 350 353 349 349 346 346 345 348 346 345 345 346 347 349 349 348 347 346 347 344 345 350 352 350 349 348 348 349 341 341 344 347 347 347 352 352 352 348 335 327 331 340 340
352 356 357 353 349 347 344 353 350 348 348 349 349 346 346 345 344 343 344 346 349 350 349 342 345 342 345 346 344 341 341 340 342 343 342 343 345 347 349 347 352 351 350 348 335 328 332 339 341
354 358 354 353 350 349 354 353 352 351 352 352 352 349 345 344 343 342 346 346 346 349 346 348 348 345 342 342 343 344 341 342 344 346 348 348 348 349 346 344 344 347 346 346 341 332 334 337 337
354 348 352 345 344 353 354 351 352 350 348 349 349 346 344 342 342 342 346 345 343 345 344 347 348 345 342 339 342 346 346 346 346 345 347 345 342 345 345 338 343 345 345 346 347 346 345 348 348
349 346 352 352 351 351 351 354 352 351 346 346 348 348 346 344 344 344 346 342 338 345 343 345 346 345 345 346 345 344 344 336 344 345 346 343 344 343 344 339 343 345 348 348 350 348 349 349 346
347 351 350 348 351 350 352 352 353 349 347 344 346 343 343 342 345 347 346 342 337 341 339 335 342 341 344 345 344 342 341 340 339 341 339 343 335 338 340 338 341 344 347 348 348 347 347 343 343
350 353 350 353 353 352 350 351 353 348 346 348 345 342 344 343 342 348 346 341 338 339 338 334 337 340 336 343 341 340 338 337 340 342 342 338 339 334 338 341 344 347 347 347 346 345 344 342 342
353 348 353 350 355 351 345 350 352 348 348 349 346 343 343 343 343 341 346 343 341 344 335 338 345 346 342 345 343 340 341 337 342 340 337 337 341 341 339 344 346 348 348 348 347 347 343 343 343
352 351 354 351 350 351 347 347 348 346 347 349 347 344 343 345 343 341 342 344 344 345 342 345 348 347 345 346 345 341 344 344 343 341 333 336 336 338 339 346 347 348 350 352 349 347 345 346 344
351 355 354 356 357 351 350 348 344 344 346 346 348 348 343 343 344 342 342 342 347 347 347 345 345 345 347 348 345 342 345 345 344 344 341 335 340 341 345 345 346 349 350 348 350 352 350 350 345
348 347 347 355 356 354 352 350 347 342 345 345 346 348 345 346 342 342 342 341 345 348 348 346 345 344 346 348 346 345 345 345 347 346 347 346 346 340 345 340 343 348 348 348 353 354 349 343 335
347 351 355 346 352 349 349 351 348 342 342 344 345 348 347 347 343 344 343 343 342 343 345 347 345 342 344 346 346 347 346 344 341 346 349 348 347 348 343 338 339 344 349 350 352 351 352 343 341
350 350 353 344 351 350 352 353 349 345 343 342 342 347 347 347 346 344 343 345 344 346 347 347 344 343 343 344 347 347 348 347 347 348 351 350 347 350 343 336 340 341 347 349 350 351 350 351 345
347 342 346 344 351 356 352 356 354 349 348 346 345 344 348 347 345 343 346 346 345 345 345 345 344 345 345 347 348 346 348 347 347 349 350 349 348 350 346 334 339 338 346 347 347 346 344 345 341
327 342 342 351 351 350 357 355 347 350 351 349 347 345 345 346 344 344 346 347 347 346 346 345 345 344 347 348 348 347 347 346 346 349 350 349 350 350 349 348 336 339 339 345 343 347 353 349 353
326 334 336 340 337 335 342 354 344 352 346 343 344 343 344 346 343 343 345 345 346 347 348 346 345 345 348 349 348 347 346 346 349 349 349 349 350 351 350 349 347 348 345 337 349 350 351 353 355
320 318 322 326 339 341 337 342 339 349 347 344 342 343 343 345 343 344 344 345 345 349 348 349 347 346 346 347 348 348 347 347 347 348 347 349 349 349 350 351 351 350 345 346 351 352 349 351 352
322 318 320 331 341 339 339 342 345 348 342 343 342 342 345 345 343 343 343 344 344 347 349 350 349 348 348 346 347 346 347 347 347 348 347 349 349 349 349 351 352 350 349 350 351 350 348 350 355
322 324 320 334 338 340 344 343 343 346 347 343 342 342 342 345 342 342 342 342 343 344 347 350 349 348 346 349 345 346 346 347 346 348 347 345 350 349 348 349 352 351 352 353 352 352 352 350 353
323 323 326 329 340 346 343 348 349 348 349 346 338 340 341 343 341 341 342 344 344 344 348 350 349 347 347 349 346 345 347 347 347 348 349 350 349 349 350 349 351 351 349 351 352 351 350 351 352
323 327 331 331 334 340 344 348 342 344 344 341 339 343 341 342 341 342 342 344 345 346 348 349 351 350 348 349 349 348 350 348 346 348 351 350 348 349 351 350 351 351 352 351 350 351 350 350 350
327 327 327 331 337 339 340 339 340 343 343 344 345 341 342 343 343 340 342 344 346 346 348 350 352 352 350 348 349 349 349 349 348 348 349 351 348 348 349 348 351 350 350 351 349 352 353 351 351
Wind_Speed
2 5 3 3 2 3 4 10 14 9 7 1 9 8 10 8 3 4 18 12 23 20 17 15 15 15 16 15 14 13 11 13 15 13 12 12 11 11 12 11 11 12 15 15 16 16 16 17 17
6 7 1 0 4 3 2 9 12 8 12 15 13 10 7 5 7 12 15 26 24 21 19 18 16 15 15 15 14 13 13 13 13 13 12 10 10 10 10 10 11 13 14 15 14 14 15 17 17
12 7 2 3 3 3 3 1 14 14 13 7 7 9 5 5 11 13 21 28 26 21 19 19 16 15 14 14 13 12 12 12 12 12 11 10 11 11 12 13 13 15 14 13 14 15 14 16 17
10 7 3 4 2 5 6 1 19 20 16 13 15 8 7 7 14 15 28 29 26 22 20 18 14 12 13 13 13 12 11 12 12 12 12 12 13 12 12 13 13 14 13 13 14 13 13 15 14
10 3 4 3 2 4 6 9 11 19 12 16 15 9 6 6 27 29 31 28 27 23 21 18 16 13 12 12 12 11 11 14 13 14 14 13 13 12 12 13 13 13 12 13 12 11 12 14 13
5 3 1 3 5 10 8 14 5 18 18 17 17 11 4 24 33 29 30 26 27 25 21 17 15 13 13 11 11 11 11 11 12 14 13 12 11 10 10 9 9 8 8 9 10 11 13 12 10
6 2 3 5 4 4 8 8 7 17 21 12 13 10 4 11 26 31 27 26 26 23 20 17 15 12 11 11 11 10 11 10 11 13 12 12 11 11 12 9 8 6 6 6 7 10 12 11 10
4 1 7 7 6 4 8 5 6 8 4 17 15 7 7 14 32 27 28 26 25 22 20 18 15 13 11 11 11 11 10 10 11 12 12 13 11 9 9 8 6 4 3 4 5 8 10 9 6
4 2 4 9 13 4 6 5 4 7 14 12 5 13 18 28 24 30 29 26 23 21 20 19 16 13 12 12 10 10 10 10 11 12 13 12 10 8 7 8 5 2 0 0 2 6 8 9 5
3 1 2 4 9 9 5 8 7 8 11 5 20 17 25 30 30 30 25 20 24 25 23 20 18 13 12 12 12 12 12 11 12 12 11 10 9 7 3 3 2 2 0 1 2 3 7 10 9
5 4 3 3 7 14 5 7 7 11 15 20 26 23 24 24 20 23 23 29 30 28 25 22 19 17 16 17 17 13 12 12 11 10 8 6 8 7 7 6 4 4 4 3 2 4 6 4 3
5 3 6 5 6 5 4 4 8 6 9 20 26 29 27 16 20 23 23 23 27 30 26 22 19 19 18 18 13 10 8 9 11 10 9 8 11 9 6 5 3 4 3 3 5 6 6 7 8
5 6 7 10 6 6 9 5 7 12 12 21 22 24 22 17 19 22 27 22 25 28 25 22 23 18 18 17 11 12 11 11 10 14 12 8 8 7 3 2 2 1 4 3 4 3 6 8 6
5 7 6 8 2 1 3 1 2 5 6 8 24 12 12 12 24 22 24 24 29 28 28 25 22 14 17 19 12 17 11 9 11 13 11 13 6 11 7 4 4 2 1 1 2 1 4 5 9
11 15 9 6 4 3 4 4 3 3 14 7 7 15 22 22 19 31 33 31 34 30 26 28 25 14 14 19 15 14 17 14 14 12 12 10 7 7 2 7 4 2 2 2 2 3 3 4 7
9 8 10 12 8 0 5 2 3 5 12 5 5 6 14 16 17 18 30 36 33 29 29 30 23 18 17 17 16 16 15 20 11 9 11 9 12 5 3 2 5 6 4 2 2 3 5 4 7
5 6 11 6 7 3 3 5 7 3 6 3 6 6 12 10 17 16 24 36 38 34 31 31 23 22 19 16 12 18 14 12 11 9 7 12 6 2 1 2 1 7 5 3 3 5 7 4 3
6 5 6 5 5 5 4 4 6 8 7 4 3 5 2 9 15 30 20 29 37 34 31 28 24 24 22 16 17 19 18 14 13 9 9 10 4 7 4 3 4 5 5 8 10 9 11 5 7
7 6 6 2 5 1 3 5 10 7 4 5 3 5 6 1 7 10 18 34 34 35 34 31 27 22 22 20 20 19 18 20 16 13 12 10 6 7 3 5 7 6 7 7 12 15 19 22 1
10 9 4 2 3 2 3 9 8 4 5 6 5 6 7 6 3 7 23 31 36 32 32 34 29 26 23 17 15 15 17 15 17 15 12 10 8 5 4 6 9 7 7 10 12 17 17 17 11
3 8 5 6 5 1 4 7 7 4 5 4 7 6 7 8 9 7 18 23 27 31 32 38 30 26 22 21 16 14 14 15 16 17 12 12 11 6 6 4 10 8 7 10 10 10 15 13 11
7 11 16 15 5 3 11 4 5 5 6 8 6 10 9 8 6 7 19 22 27 33 33 34 30 26 23 21 18 18 20 22 20 18 14 13 12 7 5 6 12 4 9 7 7 5 10 15 9
9 14 19 15 5 4 9 3 6 5 7 12 13 12 11 7 9 10 18 25 25 26 34 34 31 27 25 20 20 20 18 15 12 19 16 15 12 9 7 6 9 7 7 7 6 9 9 11 7
2 7 6 5 3 2 5 8 6 2 12 0 11 14 10 8 8 9 20 22 20 26 26 33 32 29 27 23 20 20 18 16 7 20 20 17 14 11 10 9 7 6 4 8 5 6 7 6 4
8 7 4 4 4 5 5 2 5 8 12 11 10 14 16 15 11 13 12 18 21 28 29 30 32 30 29 28 23 21 19 16 12 17 18 21 17 15 13 13 11 8 6 8 5 4 3 0 1
2 7 6 5 3 4 5 3 4 4 12 13 3 12 15 15 12 14 16 23 25 28 29 30 32 31 29 29 27 24 20 20 17 18 22 19 19 18 18 14 11 8 6 6 4 1 2 2 1
2 0 5 7 2 3 5 5 3 6 6 9 11 6 11 14 13 13 18 18 26 26 32 33 34 33 31 31 30 27 24 21 20 20 24 14 15 17 19 20 17 12 7 9 6 5 3 2 2
6 3 3 4 3 2 3 4 4 3 6 4 6 5 7 5 9 10 11 17 23 30 34 36 36 37 35 32 31 29 27 25 20 19 17 17 13 11 19 25 18 14 13 10 9 9 7 6 3
4 2 7 6 3 4 1 5 3 5 4 8 7 4 3 10 7 9 12 21 25 26 29 36 37 37 36 35 32 31 28 27 25 20 14 19 15 12 16 21 19 17 14 13 13 12 11 10 11
4 4 5 5 3 1 3 5 6 6 7 6 4 5 8 8 4 9 19 22 19 25 26 32 33 35 38 38 36 33 32 28 26 26 18 18 18 17 20 20 19 17 17 14 16 14 12 12 10
Wind_Direction
347 301 309 346 88 57 40 88 74 109 139 227 168 203 118 41 133 164 147 158 149 141 138 130 123 127 128 126 126 119 118 117 130 131 133 137 131 126 127 123 115 122 124 126 119 121 116 113 111
329 340 244 73 77 58 91 121 105 81 104 117 98 91 48 65 60 114 124 153 148 145 143 136 127 121 119 121 121 124 123 124 128 134 135 134 128 119 112 110 109 118 119 118 121 119 115 117 122
345 326 59 64 69 74 71 131 118 113 107 101 99 62 86 96 109 128 147 153 149 144 140 133 130 127 127 120 120 116 123 127 127 124 130 127 120 110 105 104 111 118 116 121 126 122 116 123 123
4 4 37 65 353 64 357 227 109 100 102 112 104 66 75 139 137 137 152 148 151 150 146 142 138 131 129 123 121 122 125 124 124 123 124 111 107 108 105 107 111 117 123 125 127 123 130 133 133
52 33 3 85 314 36 341 296 275 126 110 102 107 109 90 66 128 137 149 150 149 148 145 139 139 134 127 121 119 119 118 117 119 122 117 110 113 115 112 116 115 115 121 128 132 132 143 143 135
71 127 49 32 46 29 296 290 259 106 108 105 103 110 67 136 133 134 146 150 149 145 142 139 137 134 129 123 122 122 116 119 119 114 120 122 123 116 115 108 110 115 120 135 141 145 154 150 130
100 63 43 19 359 280 266 343 108 122 125 131 125 108 105 141 145 139 144 147 143 139 138 138 133 132 131 131 123 123 126 126 126 122 130 129 120 108 117 113 107 110 135 146 149 151 155 148 131
93 115 127 188 197 285 264 300 307 131 103 126 130 142 155 158 146 139 140 141 140 141 140 136 139 142 138 130 134 135 134 134 136 135 135 134 129 125 119 120 114 123 144 146 151 153 160 156 144
118 76 207 166 168 212 248 264 24 70 132 148 142 143 151 158 148 141 139 138 139 147 147 147 144 147 143 135 135 138 142 147 153 150 144 144 140 132 125 128 126 116 204 192 141 144 159 166 156
103 294 273 147 148 175 285 274 128 130 180 119 115 127 145 154 155 145 140 141 153 156 154 151 147 141 136 139 141 133 131 144 151 154 149 153 149 145 142 148 140 203 192 27 103 133 153 155 152
72 285 89 75 141 133 205 349 301 162 198 150 144 147 148 165 164 148 148 155 158 157 156 154 149 150 149 154 146 148 152 163 158 165 170 185 172 174 173 187 184 198 185 154 148 158 165 173 214
116 273 87 141 129 101 33 300 35 164 157 150 147 156 156 155 171 160 157 159 154 156 158 158 162 158 153 157 164 163 168 175 177 171 172 170 178 175 175 192 199 214 207 239 200 211 245 263 279
106 166 105 142 160 149 162 21 54 56 118 148 148 154 156 165 174 161 163 152 158 163 162 168 170 166 169 161 158 162 159 163 160 175 177 176 187 183 195 147 118 235 258 268 259 269 283 307 314
123 118 109 119 127 28 58 56 357 355 203 159 154 158 154 134 170 146 154 159 164 163 171 168 171 174 177 175 171 173 158 173 174 172 187 199 187 190 175 190 126 86 325 276 214 226 318 88 93
96 64 79 49 329 22 348 158 114 291 154 190 183 136 130 139 173 160 164 163 167 167 163 162 162 156 173 161 166 184 169 162 154 165 152 174 211 164 177 131 129 21 59 143 219 267 228 169 89
95 61 57 278 299 167 72 240 176 348 142 201 218 143 131 145 153 161 164 164 165 161 160 158 159 163 156 164 170 165 172 179 176 152 148 127 122 123 85 20 351 355 358 352 221 252 191 95 70
213 155 199 274 210 152 135 259 143 148 106 83 103 109 134 122 117 154 169 170 170 166 161 161 167 160 151 150 160 171 165 194 198 176 140 150 111 60 260 10 70 36 30 20 277 213 204 174 163
193 139 185 209 185 205 157 244 251 172 131 143 52 104 110 134 145 160 175 171 170 163 161 164 168 159 151 148 148 168 171 188 183 187 166 157 130 154 108 132 143 81 95 83 86 83 83 91 207
153 121 144 66 174 95 206 262 244 134 184 166 161 112 141 136 159 176 204 162 165 169 166 167 161 163 157 150 140 151 160 177 176 173 171 193 186 166 184 163 161 114 108 82 53 68 101 78 345
144 133 118 94 254 42 41 281 264 220 177 174 197 178 176 132 153 96 163 164 168 169 169 174 165 168 166 165 162 157 172 184 192 174 178 190 191 174 197 218 180 127 114 87 72 63 94 131 183
130 156 166 139 148 43 48 298 277 216 217 199 204 209 179 159 147 141 160 164 165 167 166 167 168 171 174 172 166 170 176 166 172 179 181 179 182 183 184 205 162 98 108 83 87 77 83 115 136
171 210 150 157 141 197 151 263 261 241 225 193 172 216 217 165 171 145 156 155 168 169 169 169 171 172 171 173 173 175 171 176 186 188 183 182 191 186 157 179 179 173 122 95 95 138 62 61 83
212 164 168 182 159 100 190 351 263 163 245 234 200 210 202 205 174 163 165 159 168 176 175 177 177 176 179 182 184 183 179 181 205 188 184 192 190 191 175 154 183 150 135 150 126 95 71 64 45
113 106 143 165 100 100 230 174 280 200 251 269 196 202 195 197 177 180 172 172 174 183 185 184 181 182 183 185 186 192 187 188 193 189 192 199 196 192 190 177 175 175 159 159 117 86 81 62 61
61 61 3 355 10 223 258 159 227 349 299 238 192 193 192 196 174 174 169 166 168 179 189 189 187 189 192 191 195 196 190 183 192 191 198 199 197 208 208 203 200 193 160 140 147 100 118 316 260
132 142 158 192 195 253 304 332 323 344 16 33 22 181 179 192 193 184 182 178 179 179 189 193 198 199 199 195 196 201 196 195 200 194 194 203 213 214 219 212 217 224 187 169 183 195 238 334 266
253 301 184 108 349 78 316 312 285 16 18 5 48 41 188 194 191 192 196 183 190 188 193 198 203 204 201 200 199 201 201 201 208 212 205 210 219 225 216 218 210 219 221 213 202 213 262 303 275
148 177 39 21 120 209 296 279 234 5 313 316 22 88 338 222 196 193 201 193 200 191 191 197 206 206 206 204 201 202 204 203 211 199 213 209 212 208 221 204 210 215 216 216 215 237 256 274 283
331 101 56 108 107 149 198 269 228 157 258 309 7 32 353 240 218 197 203 216 212 204 190 195 200 206 208 208 204 202 203 204 208 204 200 198 189 186 177 192 208 212 213 223 237 236 250 256 270
117 138 118 121 229 128 173 270 121 155 235 279 19 22 28 3 298 220 210 213 205 204 193 193 194 197 206 210 207 209 204 205 208 210 208 200 194 197 201 215 210 212 221 232 232 237 246 267 256